Temperature
18 18 18 18 18 18 18 18 18 18 18 17 17 17 17 17 16 16 16 15 15 15 15 15 15 14 14 14 14 14 14 14 14 14 15 15 15 15 15 15 15 15 16
18 18 18 18 18 18 18 18 18 18 18 17 17 17 17 16 16 16 15 15 15 15 15 14 14 14 14 14 14 13 13 13 13 14 14 14 14 14 14 15 15 15 15
18 18 18 18 18 18 18 18 18 18 18 17 17 17 16 16 16 16 15 15 15 15 14 14 14 14 14 13 13 13 13 13 13 13 13 13 13 14 14 14 14 14 15
18 18 18 18 18 18 18 18 18 18 17 17 17 17 17 17 16 16 15 15 15 14 14 14 14 13 13 13 13 13 13 13 13 12 12 13 13 13 13 14 14 14 14
19 19 19 19 18 18 18 18 18 18 17 17 17 17 17 16 16 15 15 15 15 14 14 14 13 13 13 13 13 13 12 12 12 12 12 12 12 12 12 13 13 14 14
19 19 19 19 18 18 18 18 18 18 18 17 17 17 16 16 16 16 15 15 14 14 14 13 13 13 13 13 12 12 12 12 12 12 12 12 12 11 11 12 12 13 13
19 19 19 19 19 19 19 18 18 18 18 17 17 17 16 16 16 16 15 15 14 14 14 13 13 13 13 12 12 12 12 12 12 11 11 11 11 11 11 11 11 12 12
20 20 20 20 19 19 19 19 19 18 18 18 17 17 16 16 16 15 15 15 14 14 13 13 13 13 12 12 12 12 12 12 11 11 11 11 11 11 11 11 11 11 11
20 20 20 20 20 20 20 19 19 19 18 18 17 17 16 16 16 15 15 14 14 14 13 13 13 13 12 12 12 12 12 12 11 11 11 11 11 11 11 11 10 10 10
21 21 21 21 21 20 20 20 19 19 19 18 18 17 16 16 15 15 15 14 14 14 13 13 13 13 12 12 12 12 12 12 11 11 11 11 11 11 11 10 10 10 10
22 22 22 22 21 21 20 20 20 19 19 18 18 17 16 16 15 15 15 14 14 14 13 13 13 13 13 12 12 12 12 12 12 11 11 11 11 11 10 10 10 10 10
23 22 22 22 22 21 21 21 20 20 19 19 18 17 17 16 16 15 15 14 14 14 13 13 13 13 13 13 13 12 12 12 12 11 11 11 11 11 10 10 10 10 10
23 23 22 22 22 22 22 21 21 20 19 19 18 17 17 16 16 15 15 14 14 14 14 14 13 13 13 13 13 12 12 12 12 12 11 11 11 11 10 10 10 10 10
23 23 23 23 23 22 22 22 21 20 20 19 18 18 17 17 16 15 15 15 14 14 14 14 14 13 13 13 13 12 12 12 12 12 11 11 11 11 10 10 10 10 10
23 23 23 23 23 22 22 22 21 21 20 19 19 18 17 17 16 16 15 15 15 15 14 14 14 14 13 13 13 12 12 12 12 12 11 11 11 11 10 10 10 10 9
23 23 23 23 23 22 22 22 21 21 20 19 19 18 18 17 17 16 16 15 15 15 15 14 14 14 14 13 13 12 12 12 12 12 11 11 11 11 10 10 10 9 9
23 23 23 23 23 23 22 22 22 21 20 20 19 19 18 17 17 17 16 16 15 15 15 15 14 14 14 13 13 13 12 12 12 12 11 11 11 11 10 10 10 9 9
22 22 23 23 23 22 22 21 21 21 20 20 19 19 18 18 17 17 16 16 16 15 15 15 14 14 14 13 13 13 12 12 12 12 12 11 11 11 10 10 10 10 9
21 22 22 22 22 22 21 21 20 20 20 19 19 19 18 18 17 17 17 16 16 15 15 15 14 14 14 14 13 13 12 12 12 12 12 11 11 11 10 10 10 10 10
21 21 22 21 21 21 21 21 20 20 20 19 19 19 18 18 17 17 16 16 15 15 15 15 14 14 14 14 13 13 12 12 12 12 12 12 11 11 11 10 10 10 10
20 20 20 20 20 20 20 20 19 19 19 19 18 18 18 17 17 16 16 15 15 15 14 14 14 14 14 14 13 13 12 12 12 12 12 12 12 11 11 10 10 10 9
19 19 20 19 19 19 19 19 19 18 18 18 17 17 17 17 16 16 16 15 15 14 14 14 14 14 14 13 13 13 13 12 12 12 12 12 12 11 11 10 10 10 9
18 18 18 18 18 18 18 18 17 17 17 17 17 16 16 16 15 15 15 15 14 14 14 13 13 13 13 13 13 13 13 12 12 12 12 12 12 11 11 11 10 10 9
16 16 17 17 16 16 16 16 16 16 16 16 16 15 15 15 14 14 14 14 13 13 13 13 13 13 13 13 13 12 12 12 12 12 12 12 11 11 11 11 10 10 9
15 15 15 15 15 15 15 15 15 15 15 15 14 14 14 14 13 13 13 13 13 12 12 12 12 12 12 12 12 12 12 12 12 12 12 12 11 11 11 11 10 10 9
14 14 14 13 13 13 14 14 13 13 13 13 13 13 12 12 12 12 12 12 12 11 11 11 11 11 11 11 12 12 12 12 11 11 11 12 12 11 11 11 10 10 10
Wind_Speed
6 7 8 8 8 7 7 8 8 7 7 4 4 4 3 2 2 3 4 5 6 6 6 4 4 3 3 3 2 2 3 3 2 2 3 3 3 3 3 3 3 3 4
6 6 7 7 8 8 8 8 8 8 7 5 4 3 4 3 2 2 3 4 5 5 5 5 3 3 3 3 3 2 2 2 3 2 2 3 4 3 4 3 4 5 5
9 9 8 8 8 9 10 10 8 8 7 6 5 5 4 4 2 1 1 1 3 4 5 5 4 3 3 3 2 2 3 1 2 2 2 2 1 3 3 3 4 5 4
8 9 10 9 9 9 8 8 8 7 7 7 7 7 5 4 4 3 2 1 2 3 5 5 5 4 3 3 2 2 2 2 1 1 1 1 1 0 3 3 3 5 5
9 10 10 10 9 8 8 7 7 7 6 7 8 7 5 3 3 2 2 1 1 1 4 5 5 4 2 2 2 2 2 1 1 1 0 1 1 0 1 3 4 4 3
10 9 8 8 7 7 7 8 8 7 6 7 7 8 8 6 5 4 3 2 1 0 2 4 4 4 3 3 2 2 2 2 2 1 1 1 1 1 1 2 3 4 4
10 10 10 10 10 10 9 9 9 8 7 8 7 8 8 8 7 6 5 4 2 2 3 3 3 3 3 3 3 2 2 2 2 2 2 2 2 2 2 2 2 3 3
10 11 12 12 12 12 11 11 11 9 8 8 8 7 7 6 5 5 5 5 4 3 3 3 3 3 3 3 3 2 2 2 3 3 3 2 3 3 3 2 2 3 3
12 12 12 12 12 12 12 12 12 10 10 9 8 7 7 7 6 5 5 4 3 3 4 4 3 3 3 3 3 2 2 2 3 3 3 3 3 3 4 4 3 3 4
12 12 12 13 12 12 11 10 11 11 10 10 9 8 8 7 6 6 6 5 5 4 4 4 4 3 3 3 3 3 3 3 3 3 3 4 3 3 3 4 4 5 4
13 13 13 12 11 10 10 10 11 10 9 10 9 8 8 7 6 6 6 6 5 5 5 5 5 4 4 4 3 4 4 4 4 4 4 5 4 3 3 3 4 4 5
12 11 11 10 10 11 11 11 11 11 11 11 9 9 8 7 7 7 7 6 6 6 6 5 5 5 5 4 5 5 4 5 5 5 5 6 4 5 4 4 5 5 6
10 9 9 10 11 11 11 12 12 12 11 10 10 9 9 9 9 8 7 7 7 6 6 6 6 6 6 5 6 6 6 6 6 6 6 6 5 6 5 5 6 5 5
10 10 11 11 12 12 12 12 12 11 11 11 11 11 11 11 10 9 8 8 7 7 7 7 7 7 6 6 6 6 6 6 7 7 7 7 7 8 7 6 7 6 6
9 11 12 11 11 11 11 11 11 11 11 11 12 12 11 9 9 8 8 8 8 8 7 7 7 7 6 7 7 7 7 7 8 7 7 8 9 11 9 7 7 7 6
9 10 11 11 12 13 12 12 12 11 11 12 13 11 9 9 10 10 9 8 8 7 7 8 8 8 7 10 12 9 8 8 8 9 9 8 10 12 12 13 12 11 9
7 8 10 11 12 13 13 14 13 11 11 12 11 10 11 11 11 10 9 9 9 8 8 8 8 9 10 13 13 13 9 9 10 10 10 9 9 10 9 10 11 12 13
3 5 6 7 7 8 9 8 8 10 12 11 10 10 10 10 9 8 9 9 7 7 8 9 9 9 11 14 14 14 10 10 11 11 11 11 11 10 10 9 9 10 10
1 2 4 4 4 6 7 8 8 8 9 10 10 10 11 10 10 10 10 8 7 8 8 7 9 10 12 14 15 13 8 9 12 12 12 12 12 14 13 10 11 12 11
4 3 3 3 3 3 6 7 7 8 10 10 9 8 9 10 10 10 9 7 7 8 8 9 9 11 12 14 15 13 8 10 11 10 11 14 15 16 14 11 11 12 12
7 6 7 5 3 4 6 6 5 7 7 5 5 5 6 7 7 7 6 6 6 7 7 9 9 10 12 14 16 15 9 11 11 11 10 10 15 17 17 14 12 15 13
10 9 8 7 6 4 5 4 3 4 2 4 4 5 5 6 5 6 5 5 5 6 7 8 9 9 9 12 14 16 16 14 12 12 11 11 14 15 16 13 14 16 12
10 9 9 8 8 6 4 2 1 1 2 3 3 3 4 4 4 4 5 4 4 5 6 7 8 9 8 9 15 17 17 17 13 12 15 16 15 13 12 15 15 12 9
9 9 10 10 8 7 5 3 2 1 2 2 2 2 2 2 3 3 4 4 5 6 6 7 8 9 8 8 8 8 10 12 12 12 13 15 14 12 12 11 10 9 9
8 8 8 8 7 6 6 6 4 3 3 2 1 1 0 1 2 2 4 5 6 6 7 7 8 9 10 12 13 10 9 9 9 7 6 7 7 9 9 9 9 8 8
7 7 7 6 5 6 6 6 5 4 4 3 3 2 1 1 2 3 4 6 9 11 13 14 13 11 14 18 18 18 17 17 12 7 8 10 11 11 11 10 9 8 9
Wind_Direction
169 163 163 158 152 152 154 156 154 153 146 140 137 132 137 131 123 147 158 152 146 142 124 111 101 96 92 85 79 85 58 29 2 15 352 347 1 13 23 10 13 4 343
164 168 161 157 160 164 165 165 165 162 162 155 142 133 127 124 122 130 148 161 160 157 143 134 127 117 104 87 70 80 81 30 24 55 50 2 353 355 7 8 25 17 11
177 175 169 165 165 171 173 176 172 166 163 147 121 102 85 76 84 112 160 177 179 178 159 151 142 134 127 124 108 99 107 80 23 39 106 103 307 316 331 356 11 8 12
180 178 176 175 178 177 172 170 169 164 160 152 150 148 153 164 184 175 170 150 163 175 170 160 153 146 141 138 137 122 119 124 69 18 34 108 167 225 323 326 345 355 6
187 186 184 183 180 174 171 169 164 164 162 160 158 151 150 156 143 137 145 143 119 160 168 165 160 155 153 153 140 131 135 141 157 161 94 71 59 99 211 301 325 335 332
189 192 186 174 175 172 170 166 167 173 166 161 161 163 161 157 152 162 169 172 166 187 177 174 171 170 171 176 174 166 164 171 170 175 179 172 177 199 202 257 297 310 307
187 185 182 182 184 183 180 173 175 179 173 168 170 173 169 166 173 176 181 177 180 196 202 177 177 183 194 194 182 180 196 193 193 201 209 210 217 202 194 224 269 290 300
190 191 192 192 192 190 184 180 184 184 178 176 180 175 168 169 177 179 177 184 192 199 197 186 191 202 205 199 187 198 217 210 217 225 219 224 231 211 204 207 226 288 299
195 199 199 197 195 192 190 188 187 186 184 183 177 174 174 177 180 177 174 180 190 196 193 194 198 209 209 203 189 213 232 225 233 241 238 238 244 228 224 219 212 228 278
198 203 203 202 200 196 191 185 187 191 186 181 181 185 184 184 178 172 183 191 196 193 188 200 206 213 215 208 201 221 232 231 244 241 244 249 252 245 234 226 223 219 233
201 203 205 203 196 190 185 186 188 185 183 185 184 180 184 183 179 186 196 196 197 197 203 209 212 220 224 219 213 232 233 236 249 248 242 253 253 252 249 236 229 226 221
204 201 200 194 188 189 188 189 189 189 191 186 182 185 183 179 186 198 202 198 204 207 209 210 217 226 228 223 223 240 241 240 251 254 249 257 256 252 250 242 240 238 228
204 199 194 193 195 194 191 191 191 193 186 179 180 182 183 187 197 203 203 201 205 210 211 210 218 226 230 230 232 234 243 245 248 250 248 253 250 257 255 249 250 251 249
201 199 201 201 198 195 191 190 191 187 179 178 181 188 194 197 201 202 202 205 206 209 213 216 221 227 231 235 238 237 243 249 252 250 247 249 245 251 256 256 253 253 256
207 205 205 204 197 193 191 189 188 183 179 179 188 199 199 198 198 201 206 208 209 215 216 219 228 231 233 237 236 237 243 247 255 256 252 251 251 250 248 251 252 250 254
219 212 207 200 198 196 193 188 189 184 177 186 197 198 193 196 202 206 207 208 213 218 216 222 229 235 239 240 237 233 241 245 249 258 260 258 259 260 259 256 253 245 246
220 213 211 207 204 199 191 192 191 176 181 194 199 195 194 201 207 207 205 211 215 215 220 228 231 238 244 245 247 242 239 244 248 250 256 260 257 249 255 261 265 261 250
234 227 218 213 207 195 188 184 172 175 186 195 200 197 196 205 207 204 211 216 214 216 225 232 234 240 249 247 247 248 245 247 249 248 247 251 258 255 247 255 263 265 262
223 208 206 202 183 179 173 159 167 173 185 200 204 200 197 202 203 208 216 215 213 222 226 231 233 239 251 249 247 246 245 249 253 252 247 244 251 252 242 245 256 266 269
34 50 77 98 121 142 140 154 172 176 197 205 205 199 196 200 206 213 215 212 214 227 232 239 239 240 249 251 247 240 240 250 256 257 251 241 241 247 240 237 244 256 264
37 50 72 77 74 102 129 153 167 202 212 191 180 184 191 200 207 208 209 210 215 227 236 246 251 247 249 256 253 243 232 242 251 255 256 250 237 238 240 233 237 244 251
39 46 61 60 55 79 117 146 199 221 175 169 183 196 199 206 210 205 214 212 215 231 244 251 262 260 254 251 255 249 237 234 243 251 253 250 241 236 238 236 237 242 247
47 50 57 56 49 52 79 110 322 111 162 168 190 205 204 207 211 207 219 220 219 233 250 254 263 270 265 257 252 254 251 239 236 248 247 246 246 241 244 241 239 241 244
44 51 59 56 42 35 43 38 17 40 126 155 205 207 204 222 221 220 220 223 231 240 252 259 264 270 272 272 268 262 261 254 245 248 251 251 249 244 245 248 245 238 235
45 50 58 57 44 37 34 30 30 55 74 65 48 33 327 241 249 247 240 238 239 237 247 260 263 269 274 271 264 265 268 262 257 251 248 248 246 245 243 243 243 240 236
47 51 52 53 43 41 36 24 24 51 69 56 40 30 7 344 313 297 299 264 255 267 261 258 263 268 263 271 277 274 268 264 259 240 245 247 245 245 245 244 244 240 237
Height
1512 1515 1518 1521 1525 1528 1531 1535 1538 1540 1542 1545 1547 1549 1550 1552 1553 1555 1556 1557 1557 1557 1557 1557 1557 1557 1557 1557 1557 1557 1557 1556 1556 1556 1556 1556 1556 1556 1556 1556 1557 1557 1558
1510 1514 1517 1520 1523 1527 1531 1534 1537 1539 1541 1544 1546 1548 1550 1552 1553 1554 1555 1556 1557 1557 1557 1557 1556 1556 1556 1556 1556 1556 1556 1555 1555 1555 1554 1554 1556 1555 1555 1555 1556 1556 1556
1508 1511 1515 1519 1523 1526 1529 1533 1536 1538 1541 1543 1546 1548 1549 1551 1552 1553 1554 1555 1556 1556 1556 1556 1556 1556 1556 1556 1555 1555 1555 1555 1554 1554 1554 1554 1553 1554 1554 1554 1554 1554 1555
1508 1510 1514 1517 1521 1525 1529 1532 1535 1538 1540 1543 1545 1546 1548 1549 1551 1552 1553 1554 1555 1555 1555 1556 1555 1555 1555 1555 1555 1554 1554 1554 1553 1553 1553 1553 1553 1553 1553 1553 1553 1553 1553
1506 1509 1512 1516 1520 1524 1528 1532 1535 1537 1540 1542 1544 1545 1547 1548 1550 1551 1552 1552 1553 1554 1554 1554 1555 1555 1554 1554 1554 1553 1553 1553 1552 1552 1552 1552 1552 1552 1552 1551 1551 1551 1551
1505 1509 1512 1516 1520 1523 1527 1530 1533 1536 1538 1540 1542 1544 1546 1547 1548 1549 1550 1551 1551 1552 1553 1553 1553 1553 1553 1553 1553 1552 1552 1551 1551 1551 1550 1550 1550 1550 1550 1549 1548 1548 1548
1503 1507 1510 1514 1518 1521 1525 1528 1531 1534 1536 1539 1541 1543 1544 1545 1546 1547 1548 1548 1549 1550 1551 1551 1552 1552 1552 1552 1551 1551 1551 1550 1550 1549 1549 1549 1548 1548 1548 1547 1546 1545 1544
1500 1504 1507 1512 1515 1519 1523 1526 1529 1532 1535 1537 1539 1541 1542 1544 1544 1545 1546 1546 1547 1548 1549 1549 1550 1550 1550 1550 1550 1549 1549 1548 1548 1548 1547 1547 1547 1546 1546 1545 1544 1543 1542
1497 1501 1505 1509 1513 1516 1520 1523 1526 1529 1532 1534 1537 1539 1540 1541 1542 1543 1543 1544 1545 1546 1546 1547 1547 1548 1548 1548 1548 1547 1547 1547 1546 1546 1545 1545 1545 1544 1543 1543 1542 1542 1539
1494 1498 1502 1506 1510 1513 1517 1521 1524 1527 1529 1532 1534 1536 1538 1539 1540 1541 1541 1542 1543 1543 1544 1545 1545 1546 1546 1546 1545 1545 1544 1544 1544 1543 1543 1542 1542 1541 1541 1540 1539 1539 1538
1489 1493 1498 1502 1506 1510 1514 1517 1520 1523 1526 1529 1531 1534 1535 1537 1537 1538 1539 1540 1540 1541 1542 1543 1543 1543 1543 1543 1543 1542 1542 1542 1541 1540 1540 1539 1539 1538 1538 1537 1536 1535 1534
1486 1490 1494 1499 1503 1506 1510 1513 1516 1519 1522 1525 1528 1530 1532 1534 1535 1536 1537 1537 1538 1539 1540 1540 1540 1541 1541 1540 1540 1540 1539 1539 1538 1538 1537 1536 1535 1535 1534 1533 1532 1531 1530
1483 1486 1490 1494 1498 1502 1505 1509 1512 1516 1519 1522 1524 1527 1528 1530 1531 1533 1534 1535 1535 1536 1537 1537 1538 1538 1538 1538 1537 1537 1536 1536 1535 1534 1534 1533 1532 1531 1530 1529 1527 1526 1525
1478 1482 1485 1489 1493 1497 1501 1504 1508 1512 1515 1518 1520 1522 1524 1526 1528 1530 1531 1532 1532 1533 1534 1534 1534 1535 1534 1534 1534 1533 1533 1532 1532 1531 1530 1529 1527 1526 1525 1524 1523 1521 1520
1474 1477 1480 1483 1487 1491 1496 1499 1504 1507 1511 1513 1515 1518 1521 1523 1525 1526 1527 1528 1529 1530 1530 1531 1531 1531 1531 1531 1530 1530 1529 1528 1528 1527 1526 1524 1523 1522 1520 1519 1517 1516 1515
1470 1472 1475 1478 1482 1486 1490 1494 1498 1503 1506 1509 1511 1514 1517 1519 1521 1522 1523 1524 1525 1526 1526 1527 1527 1527 1527 1527 1526 1526 1525 1524 1523 1522 1521 1520 1518 1517 1515 1514 1512 1511 1510
1466 1468 1471 1474 1477 1481 1485 1489 1493 1498 1501 1505 1508 1510 1512 1514 1516 1518 1519 1520 1521 1522 1522 1523 1523 1522 1522 1522 1522 1521 1520 1519 1518 1517 1516 1515 1513 1512 1510 1509 1507 1506 1504
1464 1466 1468 1471 1474 1478 1482 1486 1490 1494 1497 1500 1503 1506 1508 1510 1512 1514 1515 1516 1517 1517 1518 1518 1518 1517 1517 1517 1516 1516 1515 1513 1512 1511 1510 1509 1508 1506 1505 1503 1501 1500 1499
1463 1465 1467 1470 1472 1475 1479 1482 1486 1490 1493 1496 1498 1501 1503 1505 1507 1509 1510 1511 1512 1512 1512 1512 1512 1512 1511 1511 1511 1510 1508 1507 1506 1505 1504 1503 1502 1501 1499 1497 1495 1493 1492
1462 1464 1466 1468 1471 1474 1477 1480 1483 1486 1488 1491 1494 1497 1499 1501 1502 1504 1505 1506 1506 1507 1507 1506 1506 1506 1505 1505 1504 1504 1502 1500 1499 1498 1497 1496 1495 1494 1492 1490 1488 1486 1485
1462 1463 1465 1467 1469 1472 1475 1477 1480 1482 1485 1488 1491 1493 1495 1496 1498 1499 1500 1500 1501 1501 1500 1500 1500 1499 1498 1498 1497 1497 1495 1493 1492 1491 1490 1489 1488 1487 1485 1483 1481 1479 1478
1463 1464 1465 1467 1468 1471 1473 1475 1477 1480 1483 1485 1487 1489 1491 1492 1493 1494 1494 1495 1495 1494 1494 1493 1492 1492 1491 1490 1489 1489 1488 1486 1484 1482 1482 1481 1480 1479 1478 1476 1474 1473 1471
1465 1466 1467 1468 1469 1471 1472 1474 1475 1478 1480 1481 1483 1485 1486 1487 1488 1488 1488 1489 1489 1488 1487 1486 1485 1484 1483 1482 1482 1481 1479 1478 1476 1474 1473 1473 1472 1470 1469 1468 1467 1465 1463
1468 1468 1468 1469 1470 1471 1472 1473 1475 1476 1477 1478 1479 1480 1481 1481 1482 1482 1482 1482 1482 1482 1480 1479 1477 1476 1475 1474 1473 1472 1471 1469 1467 1466 1464 1464 1463 1461 1460 1459 1458 1457 1455
1471 1472 1472 1472 1472 1473 1473 1473 1474 1475 1475 1475 1475 1476 1476 1476 1476 1476 1476 1476 1475 1475 1473 1472 1470 1468 1466 1465 1465 1463 1461 1460 1458 1456 1455 1454 1453 1452 1451 1450 1449 1448 1447
1475 1475 1475 1474 1474 1474 1473 1473 1474 1473 1473 1472 1472 1472 1472 1472 1471 1471 1470 1470 1469 1468 1467 1465 1463 1460 1459 1457 1455 1454 1452 1450 1449 1446 1444 1443 1442 1441 1441 1440 1440 1439 1438